This demonstration page uses our WeatherBlox Daily Observations layout. Learn more.

Left ArrowRight Arrow

Hourly Observations for June 18, 2021

Temp ( °F °C ) Dew Point ( °F °C ) Humidity (%) Winds ( mph kmh ) Pressure ( in mb ) Visibility ( mi km ) Precip ( " mm )
12:15 am 00:15 Clear 78 25.6 68 19.9 71 71 ENE 9 15 29.71 1006 10 16 N/A
12:35 am 00:35 Clear 78 25.8 68 19.8 70 70 N N/A 29.71 1006 10 16 N/A
12:55 am 00:55 Clear 77 25.2 67 19.7 72 72 NE 14 22 29.72 1006 10 16 N/A
1:15 am 01:15 Clear 77 24.8 67 19.5 72 72 NNE 12 19 29.73 1007 10 16 N/A
1:35 am 01:35 Clear 76 24.5 67 19.2 72 72 NE 10 17 29.72 1007 10 16 N/A
1:55 am 01:55 Clear 76 24.5 66 19 72 72 ENE 14 22 29.72 1007 10 16 N/A
2:15 am 02:15 Clear 76 24.4 66 18.8 71 71 NW 7 11 29.74 1007 10 16 N/A
2:35 am 02:35 Clear 76 24.3 65 18.5 70 70 NNW 13 20 29.77 1008 10 16 N/A
2:55 am 02:55 Clear 76 24.6 64 18 67 67 N 16 26 29.76 1008 10 16 N/A
3:15 am 03:15 Partly Cloudy 75 24.1 64 17.8 68 68 NNE 15 24 29.74 1007 10 16 N/A
3:35 am 03:35 Partly Cloudy 76 24.2 64 17.7 67 67 NE 20 31 29.66 1004 7 11 N/A
3:55 am 03:55 Clear 76 24.2 63 17.2 65 65 NE 15 24 29.68 1005 10 16 N/A
4:15 am 04:15 Clear 74 23.5 63 17.4 69 69 ENE 8 13 29.69 1006 10 16 N/A
4:35 am 04:35 Clear 73 23 64 17.5 71 71 ENE 10 17 29.70 1006 10 16 N/A
4:55 am 04:55 Clear 73 22.7 63 17.4 72 72 E 10 17 29.71 1006 10 16 N/A
5:15 am 05:15 Clear 73 22.5 64 17.5 73 73 E 7 11 29.73 1007 10 16 N/A
5:35 am 05:35 Clear 72 22.2 63 17.3 74 74 E 7 11 29.73 1007 10 16 N/A
5:55 am 05:55 Clear 71 21.7 63 17.3 76 76 E 6 9 29.75 1007 10 16 N/A
6:15 am 06:15 Sunny 70 20.9 63 17.2 79 79 ENE 5 7 29.76 1008 10 16 N/A
6:35 am 06:35 Sunny 69 20.4 64 17.5 84 84 NE 6 9 29.77 1008 10 16 N/A
6:55 am 06:55 Sunny 69 20.7 64 17.5 82 82 N N/A 29.79 1009 7 11 N/A
7:15 am 07:15 Sunny 69 20.5 64 18 86 86 NNE 5 7 29.80 1009 7 11 N/A
7:35 am 07:35 Hazy 70 21.1 64 17.9 82 82 NE 6 9 29.79 1009 5 8 N/A
7:55 am 07:55 Sunny 71 21.9 65 18.2 80 80 N 6 9 29.79 1009 7 11 N/A
8:15 am 08:15 Hazy 72 22 65 18.3 80 80 NNE 7 11 29.80 1009 5 8 N/A
8:35 am 08:35 Sunny 74 23.5 66 18.7 75 75 ENE 12 19 29.76 1008 7 11 N/A
8:55 am 08:55 Sunny 77 24.8 67 19.2 71 71 ENE 14 22 29.75 1008 10 16 N/A
9:15 am 09:15 Sunny 80 26.4 67 19.5 66 66 ENE 17 28 29.74 1007 10 16 N/A
9:35 am 09:35 Sunny 80 26.5 67 19.5 65 65 ENE 14 22 29.75 1007 10 16 N/A
9:55 am 09:55 Sunny 82 27.6 67 19.5 61 61 ENE 16 26 29.74 1007 10 16 N/A
10:15 am 10:15 Sunny 80 26.9 67 19.5 64 64 ENE 16 26 29.74 1007 10 16 N/A
10:35 am 10:35 Sunny 80 26.5 67 19.5 65 65 NE 14 22 29.75 1007 10 16 N/A
10:55 am 10:55 Sunny 81 27.2 67 19.6 63 63 ENE 15 24 29.72 1007 10 16 N/A
11:15 am 11:15 Sunny 83 28.4 67 19.4 58 58 E 13 20 29.71 1006 10 16 N/A
11:35 am 11:35 Sunny 85 29.5 67 19.6 55 55 NE 16 26 29.71 1006 10 16 N/A
11:55 am 11:55 Sunny 82 27.8 67 19.4 60 60 ENE 15 24 29.73 1007 10 16 N/A
12:15 pm 12:15 Partly Cloudy 81 27.3 67 19.5 62 62 NNE 13 20 29.77 1008 10 16 N/A
12:35 pm 12:35 Partly Cloudy 84 28.9 68 19.8 58 58 ENE 12 19 29.72 1006 10 16 N/A
12:55 pm 12:55 Sunny 84 29.1 67 19.6 57 57 E 20 31 29.70 1006 10 16 N/A
1:15 pm 13:15 Sunny 85 29.7 67 19.6 55 55 ENE 17 28 29.70 1006 10 16 N/A
1:35 pm 13:35 Sunny 87 30.7 68 20 53 53 ENE 15 24 29.69 1006 10 16 N/A
1:55 pm 13:55 Sunny 84 29.1 68 19.8 57 57 NNE 14 22 29.73 1007 10 16 N/A
2:15 pm 14:15 Sunny 83 28.5 67 19.7 59 59 NNE 12 19 29.76 1008 10 16 N/A
2:35 pm 14:35 Sunny 83 28.3 67 19.5 59 59 E 13 20 29.72 1007 10 16 N/A
2:55 pm 14:55 Partly Cloudy 82 28 68 19.9 61 61 E 20 31 29.70 1006 10 16 N/A
3:15 pm 15:15 Partly Cloudy 83 28.6 68 20 60 60 ENE 15 24 29.68 1005 10 16 N/A
3:35 pm 15:35 Sunny 87 30.3 68 20.1 54 54 NE 15 24 29.70 1006 10 16 N/A
3:55 pm 15:55 Sunny 87 30.8 69 20.3 54 54 ENE 18 30 29.67 1005 10 16 N/A
4:15 pm 16:15 Sunny 87 30.4 67 19.7 53 53 ENE 14 22 29.71 1006 10 16 N/A
4:35 pm 16:35 Mostly Cloudy 87 30.4 68 19.9 53 53 ENE 12 19 29.72 1006 10 16 N/A
4:55 pm 16:55 Partly Cloudy 86 29.9 67 19.3 53 53 ENE 8 13 29.72 1006 10 16 N/A
5:15 pm 17:15 Sunny 86 29.9 67 19.5 54 54 ENE 13 20 29.71 1006 10 16 N/A
5:35 pm 17:35 Sunny 84 28.9 67 19.7 58 58 NNE 10 17 29.74 1007 10 16 N/A
5:55 pm 17:55 Partly Cloudy 83 28.5 67 19.5 58 58 NNE 10 17 29.74 1007 10 16 N/A
6:15 pm 18:15 Sunny 83 28.3 67 19.2 58 58 ENE 12 19 29.72 1007 10 16 N/A
6:35 pm 18:35 Sunny 82 28 67 19.6 60 60 NNE 7 11 29.75 1007 10 16 N/A
6:55 pm 18:55 Sunny 82 28 67 19.2 59 59 ENE 12 19 29.72 1006 10 16 N/A
7:15 pm 19:15 Sunny 82 27.7 67 19.3 60 60 ENE 12 19 29.71 1006 10 16 N/A
7:35 pm 19:35 Sunny 81 27.1 67 19.2 62 62 E 13 20 29.68 1005 10 16 N/A
7:55 pm 19:55 Sunny 81 27 66 18.8 61 61 E 6 9 29.71 1006 10 16 N/A
8:15 pm 20:15 Sunny 81 27 66 18.7 60 60 E 8 13 29.70 1006 10 16 N/A
8:35 pm 20:35 Sunny 80 26.5 66 19 63 63 NNE 7 11 29.72 1006 10 16 N/A
8:55 pm 20:55 Sunny 78 25.7 67 19.4 68 68 NNW 5 7 29.75 1008 10 16 N/A
9:15 pm 21:15 Clear 76 24.4 67 19.2 73 73 N 7 11 29.76 1008 10 16 N/A
9:35 pm 21:35 Clear 75 24.1 66 18.8 72 72 N N/A 29.77 1008 10 16 N/A
9:55 pm 21:55 Clear 72 22.4 65 18.4 78 78 N 6 9 29.79 1009 10 16 N/A
10:15 pm 22:15 Clear 72 22 65 18.5 81 81 N 7 11 29.80 1009 10 16 N/A
10:35 pm 22:35 Clear 70 21.3 65 18.2 83 83 NNE 6 9 29.81 1010 10 16 N/A
10:55 pm 22:55 Clear 70 20.9 64 18 84 84 N N/A 29.82 1010 10 16 N/A
11:15 pm 23:15 Clear 70 21.2 64 17.6 80 80 NNE 5 7 29.82 1010 10 16 N/A
11:35 pm 23:35 Clear 67 19.5 63 17 86 86 NNE 3 6 29.83 1010 10 16 N/A
11:55 pm 23:55 Clear 68 19.9 62 16.5 81 81 N N/A 29.82 1010 10 16 N/A

Powered by AerisWeather